Location: Unspecified
(40.1487°N, 0.0000°E)
Time: 02:50:27
(UTC+00:00)

CZ-6A DEB - Visible Passes

Search period start: 04 April 2026 00:00
Search period end: 14 April 2026 00:00
Orbit: 815 x 1564 km, 98.9° (Epoch: 28 March)

Date Brightness Start Highest point End Pass type
(mag) Time Alt. Az. Time Alt. Az. Time Alt. Az.
4 Apr ? 05:07:22 10° ESE 05:12:52 25° ENE 05:19:02 10° N visible
4 Apr ? 20:07:16 10° N 20:16:05 58° WNW 20:24:31 10° SW visible
4 Apr ? 21:57:38 10° NNW 22:01:46 14° NW 22:05:55 10° WNW visible
5 Apr ? 04:48:56 10° E 04:53:47 20° NE 04:59:06 10° NNE visible
5 Apr ? 19:47:44 10° N 19:56:48 73° WNW 20:05:22 10° SSW visible
5 Apr ? 21:37:15 10° NNW 21:42:50 19° NW 21:48:21 10° W visible
6 Apr ? 04:30:54 10° E 04:34:47 15° NE 04:38:55 10° NNE visible
6 Apr ? 19:28:17 10° NNE 19:37:27 89° ESE 19:46:01 10° SSW visible
6 Apr ? 21:17:13 10° N 21:23:51 24° NW 21:30:19 10° WSW visible
7 Apr ? 04:13:41 10° ENE 04:15:50 11° NE 04:18:04 10° NNE visible
7 Apr ? 19:08:54 10° NNE 19:18:01 71° ESE 19:26:27 10° S visible
7 Apr ? 20:57:21 10° N 21:04:47 30° WNW 21:11:57 10° WSW visible
8 Apr ? 18:49:38 10° NNE 18:58:32 55° E 19:06:42 10° S visible
8 Apr ? 20:37:36 10° N 20:45:40 38° WNW 20:53:20 10° SW visible
9 Apr ? 20:17:57 10° N 20:26:30 48° WNW 20:34:29 10° SW visible
9 Apr ? 22:09:24 10° NNW 22:11:52 11° NW 22:14:19 10° WNW visible
10 Apr ? 04:58:02 10° ESE 05:03:50 25° ENE 05:10:14 10° N visible
10 Apr ? 19:58:23 10° N 20:07:16 62° WNW 20:15:26 10° SSW visible
10 Apr ? 21:48:27 10° NNW 21:52:58 15° NW 21:57:24 10° W visible
11 Apr ? 04:39:42 10° E 04:44:47 20° NE 04:50:17 10° NNE visible
11 Apr ? 19:38:53 10° N 19:47:57 78° WNW 19:56:11 10° SSW visible
11 Apr ? 21:28:13 10° NNW 21:34:02 20° NW 21:39:39 10° W visible
12 Apr ? 04:21:45 10° E 04:25:49 15° NE 04:30:05 10° NNE visible
12 Apr ? 19:19:28 10° NNE 19:28:34 84° ESE 19:36:44 10° SSW visible
12 Apr ? 21:08:15 10° N 21:15:02 25° NW 21:21:28 10° WSW visible
13 Apr ? 04:04:38 10° ENE 04:06:54 11° NE 04:09:14 10° NNE visible
13 Apr ? 19:00:08 10° NNE 19:09:06 66° E 19:17:05 10° S visible
13 Apr ? 20:48:25 10° N 20:55:57 32° WNW 21:03:00 10° WSW visible
